Time,TemperatureF,DewpointF,PressureIn,WindDirection,WindDirectionDegrees,WindSpeedMPH,WindSpeedGustMPH,Humidity,HourlyPrecipIn,Conditions,Clouds,dailyrainin,SoftwareType,DateUTC
2013-09-17 00:02:00,66.7,64.0,30.17,ESE,114,0.0,0.0,91,0.00,RA,FEW,0.00,WeatherDisplay:10.37,2013-09-17 05:02:00,
2013-09-17 00:07:00,66.6,63.9,30.17,NE,39,0.0,0.0,91,0.00,RA,FEW,0.00,WeatherDisplay:10.37,2013-09-17 05:07:00,
2013-09-17 00:12:00,66.5,63.8,30.17,NE,40,0.0,0.0,91,0.00,FEW,,0.00,WeatherDisplay:10.37,2013-09-17 05:12:00,
2013-09-17 00:17:00,66.5,64.1,30.17,East,79,0.0,0.0,92,0.00,FEW,,0.00,WeatherDisplay:10.37,2013-09-17 05:17:00,
2013-09-17 00:22:00,66.4,64.0,30.17,East,84,0.0,0.0,92,0.00,FEW,,0.00,WeatherDisplay:10.37,2013-09-17 05:22:00,
2013-09-17 00:27:00,66.3,63.9,30.17,East,93,0.0,0.0,92,0.00,FEW,,0.00,WeatherDisplay:10.37,2013-09-17 05:27:00,
2013-09-17 00:32:00,66.2,63.8,30.17,East,96,0.0,0.0,92,0.00,FEW,,0.00,WeatherDisplay:10.37,2013-09-17 05:32:00,
2013-09-17 00:37:00,66.1,63.7,30.17,East,95,0.0,0.0,92,0.00,FEW,,0.00,WeatherDisplay:10.37,2013-09-17 05:37:00,
2013-09-17 00:42:00,66.0,63.9,30.17,East,95,0.0,0.0,93,0.00,FEW,,0.00,WeatherDisplay:10.37,2013-09-17 05:42:00,
2013-09-17 00:47:00,65.8,63.7,30.17,NNE,24,0.0,0.0,93,0.00,FEW,,0.00,WeatherDisplay:10.37,2013-09-17 05:47:00,
2013-09-17 00:52:00,65.7,63.6,30.17,NNE,24,0.0,0.0,93,0.00,FEW,,0.00,WeatherDisplay:10.37,2013-09-17 05:52:00,
2013-09-17 00:57:00,65.6,63.5,30.17,NNE,24,0.0,0.0,93,0.00,FEW,,0.00,WeatherDisplay:10.37,2013-09-17 05:57:00,
2013-09-17 01:02:00,65.4,63.3,30.17,NNE,24,0.0,0.0,93,0.00,OVC,FEW,0.00,WeatherDisplay:10.37,2013-09-17 06:02:00,
2013-09-17 01:07:00,65.3,63.2,30.17,NNE,28,0.0,0.0,93,0.00,OVC,FEW,0.00,WeatherDisplay:10.37,2013-09-17 06:07:00,
2013-09-17 01:12:00,65.3,63.5,30.17,East,90,0.0,0.0,94,0.00,OVC,FEW,0.00,WeatherDisplay:10.37,2013-09-17 06:12:00,
2013-09-17 01:17:00,65.2,63.1,30.17,East,90,0.0,0.0,93,0.00,OVC,FEW,0.00,WeatherDisplay:10.37,2013-09-17 06:17:00,
2013-09-17 01:22:00,65.1,63.0,30.17,ENE,67,0.0,0.0,93,0.00,OVC,FEW,0.00,WeatherDisplay:10.37,2013-09-17 06:22:00,
2013-09-17 01:27:00,65.1,63.3,30.17,ENE,67,0.0,0.0,94,0.00,OVC,FEW,0.00,WeatherDisplay:10.37,2013-09-17 06:27:00,
2013-09-17 01:32:00,64.9,63.1,30.17,ENE,67,0.0,0.0,94,0.00,OVC,FEW,0.00,WeatherDisplay:10.37,2013-09-17 06:32:00,
2013-09-17 01:37:00,64.9,63.1,30.17,ENE,67,0.0,0.0,94,0.00,OVC,FEW,0.00,WeatherDisplay:10.37,2013-09-17 06:37:00,
2013-09-17 01:42:00,64.7,62.9,30.17,East,82,0.0,0.0,94,0.00,OVC,FEW,0.00,WeatherDisplay:10.37,2013-09-17 06:42:00,
2013-09-17 01:47:00,64.7,62.9,30.17,East,82,0.0,0.0,94,0.00,OVC,FEW,0.00,WeatherDisplay:10.37,2013-09-17 06:47:00,
2013-09-17 01:52:00,64.6,62.8,30.17,East,82,0.0,0.0,94,0.00,OVC,FEW,0.00,WeatherDisplay:10.37,2013-09-17 06:52:00,
2013-09-17 01:57:00,64.5,62.7,30.17,NE,54,0.0,0.0,94,0.00,OVC,FEW,0.00,WeatherDisplay:10.37,2013-09-17 06:57:00,
2013-09-17 02:02:00,64.6,62.8,30.17,East,82,0.0,0.0,94,0.00,OVC,FEW,0.00,WeatherDisplay:10.37,2013-09-17 07:02:00,
2013-09-17 02:07:00,64.6,62.8,30.17,NE,48,0.0,0.0,94,0.00,OVC,FEW,0.00,WeatherDisplay:10.37,2013-09-17 07:07:00,
2013-09-17 02:12:00,64.6,62.8,30.17,NE,51,0.0,0.0,94,0.00,OVC,FEW,0.00,WeatherDisplay:10.37,2013-09-17 07:12:00,
2013-09-17 02:17:00,64.6,62.8,30.17,NNE,21,0.0,0.0,94,0.00,OVC,FEW,0.00,WeatherDisplay:10.37,2013-09-17 07:17:00,
2013-09-17 02:22:00,64.5,62.7,30.16,East,85,0.0,0.0,94,0.00,OVC,FEW,0.00,WeatherDisplay:10.37,2013-09-17 07:22:00,
2013-09-17 02:27:00,64.5,62.7,30.16,East,94,0.0,0.0,94,0.00,OVC,FEW,0.00,WeatherDisplay:10.37,2013-09-17 07:27:00,
2013-09-17 02:32:00,64.5,62.7,30.16,NE,42,0.0,0.0,94,0.00,OVC,FEW,0.00,WeatherDisplay:10.37,2013-09-17 07:32:00,
2013-09-17 02:37:00,64.5,62.7,30.16,ENE,69,0.0,0.0,94,0.00,OVC,FEW,0.00,WeatherDisplay:10.37,2013-09-17 07:37:00,
2013-09-17 02:42:00,64.5,62.7,30.16,NE,56,0.0,0.0,94,0.00,OVC,FEW,0.00,WeatherDisplay:10.37,2013-09-17 07:42:00,
2013-09-17 02:47:00,64.5,62.7,30.16,NE,45,0.0,0.0,94,0.00,OVC,FEW,0.00,WeatherDisplay:10.37,2013-09-17 07:47:00,
2013-09-17 02:53:00,64.5,62.7,30.16,ENE,64,0.0,0.0,94,0.00,OVC,FEW,0.00,WeatherDisplay:10.37,2013-09-17 07:53:00,
2013-09-17 02:58:00,64.5,62.7,30.16,NE,46,0.0,0.0,94,0.00,OVC,FEW,0.00,WeatherDisplay:10.37,2013-09-17 07:58:00,
2013-09-17 03:03:00,64.5,62.7,30.16,ENE,67,0.0,0.0,94,0.00,OVC,FEW,0.00,WeatherDisplay:10.37,2013-09-17 08:03:00,
2013-09-17 03:08:00,64.5,62.7,30.16,ENE,69,0.0,0.0,94,0.00,OVC,FEW,0.00,WeatherDisplay:10.37,2013-09-17 08:08:00,
2013-09-17 03:13:00,64.5,62.7,30.16,NE,47,0.0,0.0,94,0.00,OVC,FEW,0.00,WeatherDisplay:10.37,2013-09-17 08:13:00,
2013-09-17 03:18:00,64.5,62.7,30.16,ENE,67,0.0,0.0,94,0.00,OVC,FEW,0.00,WeatherDisplay:10.37,2013-09-17 08:18:00,
2013-09-17 03:23:00,64.5,62.7,30.16,ENE,67,0.0,0.0,94,0.00,CLR,FEW,0.00,WeatherDisplay:10.37,2013-09-17 08:23:00,
2013-09-17 03:28:00,64.5,62.7,30.16,ENE,60,0.0,0.0,94,0.00,CLR,FEW,0.00,WeatherDisplay:10.37,2013-09-17 08:28:00,
2013-09-17 03:33:00,64.5,62.7,30.16,ENE,60,0.0,0.0,94,0.00,CLR,FEW,0.00,WeatherDisplay:10.37,2013-09-17 08:33:00,
2013-09-17 03:38:00,64.4,62.6,30.16,SE,140,0.0,0.0,94,0.00,CLR,FEW,0.00,WeatherDisplay:10.37,2013-09-17 08:38:00,
2013-09-17 03:43:00,64.4,62.6,30.16,ENE,74,0.0,0.0,94,0.00,CLR,FEW,0.00,WeatherDisplay:10.37,2013-09-17 08:43:00,
2013-09-17 03:48:00,64.4,62.6,30.16,ENE,74,0.0,0.0,94,0.00,CLR,FEW,0.00,WeatherDisplay:10.37,2013-09-17 08:48:00,
2013-09-17 03:53:00,64.4,62.6,30.16,ENE,76,0.0,0.0,94,0.00,CLR,FEW,0.00,WeatherDisplay:10.37,2013-09-17 08:53:00,
2013-09-17 03:58:00,64.3,62.5,30.16,ESE,109,0.0,0.0,94,0.00,CLR,FEW,0.00,WeatherDisplay:10.37,2013-09-17 08:58:00,
2013-09-17 04:03:00,64.3,62.8,30.16,ESE,111,0.0,0.0,95,0.00,CLR,FEW,0.00,WeatherDisplay:10.37,2013-09-17 09:03:00,
2013-09-17 04:08:00,64.3,62.8,30.16,ESE,114,0.0,0.0,95,0.00,CLR,FEW,0.00,WeatherDisplay:10.37,2013-09-17 09:08:00,
2013-09-17 04:13:00,64.2,62.7,30.16,ESE,113,0.0,0.0,95,0.00,CLR,FEW,0.00,WeatherDisplay:10.37,2013-09-17 09:13:00,
2013-09-17 04:18:00,64.2,62.7,30.16,ESE,113,0.0,0.0,95,0.00,CLR,FEW,0.00,WeatherDisplay:10.37,2013-09-17 09:18:00,
2013-09-17 04:23:00,64.0,62.5,30.16,ESE,113,0.0,0.0,95,0.00,CLR,FEW,0.00,WeatherDisplay:10.37,2013-09-17 09:23:00,
2013-09-17 04:28:00,63.8,62.3,30.16,ESE,111,0.0,0.0,95,0.00,CLR,FEW,0.00,WeatherDisplay:10.37,2013-09-17 09:28:00,
2013-09-17 04:33:00,63.8,62.3,30.16,ESE,111,0.0,0.0,95,0.00,CLR,FEW,0.00,WeatherDisplay:10.37,2013-09-17 09:33:00,
2013-09-17 04:38:00,63.8,62.6,30.16,ESE,111,0.0,0.0,96,0.00,CLR,FEW,0.00,WeatherDisplay:10.37,2013-09-17 09:38:00,
2013-09-17 04:43:00,63.8,62.6,30.16,ESE,111,0.0,0.0,96,0.00,CLR,FEW,0.00,WeatherDisplay:10.37,2013-09-17 09:43:00,
2013-09-17 04:48:00,63.7,62.5,30.16,ESE,111,0.0,0.0,96,0.00,CLR,FEW,0.00,WeatherDisplay:10.37,2013-09-17 09:48:00,
2013-09-17 04:53:00,63.7,62.5,30.16,ESE,111,0.0,0.0,96,0.00,CLR,FEW,0.00,WeatherDisplay:10.37,2013-09-17 09:53:00,
2013-09-17 04:58:00,63.7,62.5,30.16,ESE,111,0.0,0.0,96,0.00,CLR,FEW,0.00,WeatherDisplay:10.37,2013-09-17 09:58:00,
2013-09-17 05:03:00,63.7,62.5,30.16,ESE,111,0.0,0.0,96,0.00,BKN,FEW,0.00,WeatherDisplay:10.37,2013-09-17 10:03:00,
2013-09-17 05:08:00,63.6,62.4,30.16,ESE,111,0.0,0.0,96,0.00,BKN,FEW,0.00,WeatherDisplay:10.37,2013-09-17 10:08:00,
2013-09-17 05:13:00,63.6,62.4,30.16,East,80,0.0,0.0,96,0.00,BKN,FEW,0.00,WeatherDisplay:10.37,2013-09-17 10:13:00,
2013-09-17 05:18:00,63.6,62.4,30.16,East,84,0.0,0.0,96,0.00,BKN,FEW,0.00,WeatherDisplay:10.37,2013-09-17 10:18:00,
2013-09-17 05:23:00,63.6,62.4,30.16,East,84,0.0,0.0,96,0.00,BKN,FEW,0.00,WeatherDisplay:10.37,2013-09-17 10:23:00,
2013-09-17 05:28:00,63.6,62.4,30.16,ENE,78,0.0,0.0,96,0.00,BKN,FEW,0.00,WeatherDisplay:10.37,2013-09-17 10:28:00,
2013-09-17 05:33:00,63.6,62.4,30.16,ENE,78,0.0,0.0,96,0.00,BKN,FEW,0.00,WeatherDisplay:10.37,2013-09-17 10:33:00,
2013-09-17 05:38:00,63.6,62.4,30.16,East,89,0.0,0.0,96,0.00,BKN,FEW,0.00,WeatherDisplay:10.37,2013-09-17 10:38:00,
2013-09-17 05:43:00,63.6,62.4,30.16,East,94,0.0,0.0,96,0.00,BKN,FEW,0.00,WeatherDisplay:10.37,2013-09-17 10:43:00,
2013-09-17 05:48:00,63.6,62.4,30.16,East,94,0.0,0.0,96,0.00,BKN,FEW,0.00,WeatherDisplay:10.37,2013-09-17 10:48:00,
2013-09-17 05:53:00,63.6,62.4,30.17,East,86,0.0,0.0,96,0.00,BKN,FEW,0.00,WeatherDisplay:10.37,2013-09-17 10:53:00,
2013-09-17 05:58:00,63.6,62.4,30.17,ESE,111,0.0,0.0,96,0.00,BKN,FEW,0.00,WeatherDisplay:10.37,2013-09-17 10:58:00,
2013-09-17 06:03:00,63.6,62.4,30.16,ENE,78,0.0,0.0,96,0.00,BKN,FEW,0.00,WeatherDisplay:10.37,2013-09-17 11:03:00,
2013-09-17 06:08:00,63.6,62.4,30.17,ENE,78,0.0,0.0,96,0.00,BKN,FEW,0.00,WeatherDisplay:10.37,2013-09-17 11:08:00,
2013-09-17 06:13:00,63.5,62.3,30.16,ENE,78,0.0,0.0,96,0.00,BKN,FEW,0.00,WeatherDisplay:10.37,2013-09-17 11:13:00,
2013-09-17 06:18:00,63.6,62.4,30.17,East,86,0.0,0.0,96,0.00,BKN,FEW,0.00,WeatherDisplay:10.37,2013-09-17 11:18:00,
2013-09-17 06:23:00,63.5,62.3,30.17,East,91,0.0,0.0,96,0.00,BKN,FEW,0.00,WeatherDisplay:10.37,2013-09-17 11:23:00,
2013-09-17 06:28:00,63.5,62.3,30.17,East,88,0.0,0.0,96,0.00,BKN,FEW,0.00,WeatherDisplay:10.37,2013-09-17 11:28:00,
2013-09-17 06:33:00,63.5,62.3,30.17,NNW,328,0.0,0.0,96,0.00,BKN,FEW,0.00,WeatherDisplay:10.37,2013-09-17 11:33:00,
2013-09-17 06:38:00,63.5,62.3,30.17,NE,45,0.0,0.0,96,0.00,BKN,FEW,0.00,WeatherDisplay:10.37,2013-09-17 11:38:00,
2013-09-17 06:43:00,63.5,62.3,30.17,NE,47,0.0,0.0,96,0.00,BKN,FEW,0.00,WeatherDisplay:10.37,2013-09-17 11:43:00,
2013-09-17 06:48:00,63.5,62.3,30.17,NNE,29,0.0,0.0,96,0.00,BKN,FEW,0.00,WeatherDisplay:10.37,2013-09-17 11:48:00,
2013-09-17 06:53:00,63.4,62.2,30.18,ENE,64,0.0,0.0,96,0.00,BKN,FEW,0.00,WeatherDisplay:10.37,2013-09-17 11:53:00,
2013-09-17 06:58:00,63.4,62.2,30.18,ENE,63,0.0,0.0,96,0.00,BKN,FEW,0.00,WeatherDisplay:10.37,2013-09-17 11:58:00,
2013-09-17 07:03:00,63.5,62.3,30.18,ENE,69,0.0,0.0,96,0.00,SCT,FEW,0.00,WeatherDisplay:10.37,2013-09-17 12:03:00,
2013-09-17 07:08:00,63.5,62.3,30.18,ENE,75,0.0,0.0,96,0.00,SCT,FEW,0.00,WeatherDisplay:10.37,2013-09-17 12:08:00,
2013-09-17 07:13:00,63.5,62.3,30.18,NW,309,0.0,0.0,96,0.00,SCT,FEW,0.00,WeatherDisplay:10.37,2013-09-17 12:13:00,
2013-09-17 07:18:00,63.6,62.4,30.18,ENE,67,0.0,0.0,96,0.00,SCT,FEW,0.00,WeatherDisplay:10.37,2013-09-17 12:18:00,
2013-09-17 07:23:00,63.7,62.5,30.18,ENE,67,0.0,0.0,96,0.00,SCT,FEW,0.00,WeatherDisplay:10.37,2013-09-17 12:23:00,
2013-09-17 07:28:00,63.7,62.5,30.18,ENE,67,0.0,0.0,96,0.00,SCT,FEW,0.00,WeatherDisplay:10.37,2013-09-17 12:28:00,
2013-09-17 07:34:00,63.8,62.6,30.18,East,79,0.0,0.0,96,0.00,SCT,FEW,0.00,WeatherDisplay:10.37,2013-09-17 12:34:00,
2013-09-17 07:39:00,63.9,62.4,30.18,ESE,121,0.0,0.0,95,0.00,SCT,FEW,0.00,WeatherDisplay:10.37,2013-09-17 12:39:00,
2013-09-17 07:44:00,64.0,62.5,30.19,ESE,121,0.0,0.0,95,0.00,SCT,FEW,0.00,WeatherDisplay:10.37,2013-09-17 12:44:00,
2013-09-17 07:49:00,64.1,62.6,30.19,ENE,59,0.0,0.0,95,0.00,SCT,FEW,0.00,WeatherDisplay:10.37,2013-09-17 12:49:00,
2013-09-17 07:54:00,64.1,62.6,30.19,ENE,62,0.0,0.0,95,0.00,SCT,FEW,0.00,WeatherDisplay:10.37,2013-09-17 12:54:00,
2013-09-17 07:59:00,64.2,62.7,30.19,ENE,61,0.0,0.0,95,0.00,SCT,FEW,0.00,WeatherDisplay:10.37,2013-09-17 12:59:00,
2013-09-17 08:04:00,64.3,62.8,30.19,ESE,103,0.0,0.0,95,0.00,CLR,FEW,0.00,WeatherDisplay:10.37,2013-09-17 13:04:00,
2013-09-17 08:09:00,64.4,62.6,30.19,East,84,0.0,0.0,94,0.00,CLR,FEW,0.00,WeatherDisplay:10.37,2013-09-17 13:09:00,
2013-09-17 08:14:00,64.6,62.8,30.19,ENE,70,0.0,0.0,94,0.00,CLR,FEW,0.00,WeatherDisplay:10.37,2013-09-17 13:14:00,
2013-09-17 08:19:00,64.7,62.9,30.19,East,85,0.0,0.0,94,0.00,CLR,FEW,0.00,WeatherDisplay:10.37,2013-09-17 13:19:00,
2013-09-17 08:24:00,64.8,63.0,30.19,ENE,68,0.0,0.0,94,0.00,CLR,FEW,0.00,WeatherDisplay:10.37,2013-09-17 13:24:00,
2013-09-17 08:29:00,65.0,63.2,30.19,NE,44,0.0,0.0,94,0.00,CLR,FEW,0.00,WeatherDisplay:10.37,2013-09-17 13:29:00,
2013-09-17 08:34:00,65.1,63.0,30.20,ENE,67,0.0,0.0,93,0.00,CLR,FEW,0.00,WeatherDisplay:10.37,2013-09-17 13:34:00,
2013-09-17 08:39:00,65.3,63.5,30.20,ENE,58,0.0,0.0,94,0.00,CLR,FEW,0.00,WeatherDisplay:10.37,2013-09-17 13:39:00,
2013-09-17 08:44:00,65.4,63.3,30.20,NE,48,0.0,0.0,93,0.00,CLR,FEW,0.00,WeatherDisplay:10.37,2013-09-17 13:44:00,
2013-09-17 08:49:00,65.4,63.3,30.20,NE,36,0.0,0.0,93,0.00,CLR,FEW,0.00,WeatherDisplay:10.37,2013-09-17 13:49:00,
2013-09-17 08:54:00,65.5,63.4,30.20,ENE,65,0.0,0.0,93,0.00,CLR,FEW,0.00,WeatherDisplay:10.37,2013-09-17 13:54:00,
2013-09-17 08:59:00,65.6,63.2,30.20,South,178,0.0,0.0,92,0.00,CLR,FEW,0.00,WeatherDisplay:10.37,2013-09-17 13:59:00,
2013-09-17 09:04:00,65.9,63.5,30.20,NE,42,0.0,0.0,92,0.00,CLR,FEW,0.00,WeatherDisplay:10.37,2013-09-17 14:04:00,
2013-09-17 09:09:00,66.1,63.7,30.20,NNE,23,0.0,0.0,92,0.00,CLR,FEW,0.00,WeatherDisplay:10.37,2013-09-17 14:09:00,
2013-09-17 09:14:00,66.3,63.9,30.20,ENE,69,0.0,0.0,92,0.00,CLR,FEW,0.00,WeatherDisplay:10.37,2013-09-17 14:14:00,
2013-09-17 09:19:00,66.6,63.9,30.20,NE,46,0.0,0.0,91,0.00,CLR,FEW,0.00,WeatherDisplay:10.37,2013-09-17 14:19:00,
2013-09-17 09:24:00,66.8,64.1,30.20,SSE,154,0.0,0.0,91,0.00,CLR,FEW,0.00,WeatherDisplay:10.37,2013-09-17 14:24:00,
2013-09-17 09:29:00,67.1,64.7,30.20,NE,42,0.0,0.0,92,0.00,CLR,FEW,0.00,WeatherDisplay:10.37,2013-09-17 14:29:00,
2013-09-17 09:34:00,67.4,64.4,30.20,SE,126,0.0,0.0,90,0.00,CLR,FEW,0.00,WeatherDisplay:10.37,2013-09-17 14:34:00,
2013-09-17 09:39:00,67.6,64.6,30.20,ENE,57,0.0,0.0,90,0.00,CLR,FEW,0.00,WeatherDisplay:10.37,2013-09-17 14:39:00,
2013-09-17 09:44:00,67.9,64.5,30.20,NE,36,0.0,0.0,89,0.00,CLR,FEW,0.00,WeatherDisplay:10.37,2013-09-17 14:44:00,
2013-09-17 09:49:00,68.0,64.6,30.20,ESE,119,0.0,0.0,89,0.00,CLR,FEW,0.00,WeatherDisplay:10.37,2013-09-17 14:49:00,
2013-09-17 09:54:00,68.1,65.1,30.20,ESE,112,0.0,0.0,90,0.00,CLR,FEW,0.00,WeatherDisplay:10.37,2013-09-17 14:54:00,
2013-09-17 09:59:00,68.4,65.0,30.20,NNW,343,0.0,0.0,89,0.00,CLR,FEW,0.00,WeatherDisplay:10.37,2013-09-17 14:59:00,
2013-09-17 10:05:00,68.8,65.1,30.20,NNW,336,0.0,0.0,88,0.00,CLR,FEW,0.00,WeatherDisplay:10.37,2013-09-17 15:05:00,
2013-09-17 10:10:00,69.3,65.6,30.20,ENE,59,0.0,0.0,88,0.00,CLR,FEW,0.00,WeatherDisplay:10.37,2013-09-17 15:10:00,
2013-09-17 10:15:00,69.8,65.8,30.19,ENE,71,0.0,0.0,87,0.00,CLR,FEW,0.00,WeatherDisplay:10.37,2013-09-17 15:15:00,
2013-09-17 10:20:00,70.3,66.6,30.19,South,180,0.0,0.0,88,0.00,CLR,FEW,0.00,WeatherDisplay:10.37,2013-09-17 15:20:00,
2013-09-17 10:25:00,70.9,66.5,30.19,NW,305,0.0,0.0,86,0.00,CLR,FEW,0.00,WeatherDisplay:10.37,2013-09-17 15:25:00,
2013-09-17 10:30:00,71.3,65.9,30.19,ESE,109,0.0,0.0,83,0.00,CLR,FEW,0.00,WeatherDisplay:10.37,2013-09-17 15:30:00,
2013-09-17 10:35:00,71.4,66.3,30.19,North,11,0.0,0.0,84,0.00,CLR,FEW,0.00,WeatherDisplay:10.37,2013-09-17 15:35:00,
2013-09-17 10:40:00,71.7,66.6,30.19,ENE,77,0.0,0.0,84,0.00,CLR,FEW,0.00,WeatherDisplay:10.37,2013-09-17 15:40:00,
2013-09-17 10:45:00,72.0,66.9,30.19,NE,46,0.0,0.0,84,0.00,CLR,FEW,0.00,WeatherDisplay:10.37,2013-09-17 15:45:00,
2013-09-17 10:50:00,72.1,66.3,30.19,NE,38,0.0,0.0,82,0.00,CLR,FEW,0.00,WeatherDisplay:10.37,2013-09-17 15:50:00,
2013-09-17 10:55:00,72.5,67.0,30.19,NE,51,0.0,0.0,83,0.00,CLR,FEW,0.00,WeatherDisplay:10.37,2013-09-17 15:55:00,
2013-09-17 11:00:00,73.0,66.8,30.19,ENE,68,0.0,0.0,81,0.00,CLR,FEW,0.00,WeatherDisplay:10.37,2013-09-17 16:00:00,
2013-09-17 11:05:00,73.5,66.6,30.19,NE,48,0.0,0.0,79,0.00,CLR,FEW,0.00,WeatherDisplay:10.37,2013-09-17 16:05:00,
2013-09-17 11:10:00,73.7,67.1,30.18,NNW,336,0.0,0.0,80,0.00,CLR,FEW,0.00,WeatherDisplay:10.37,2013-09-17 16:10:00,
2013-09-17 11:15:00,74.0,66.7,30.19,NE,56,0.0,0.0,78,0.00,CLR,FEW,0.00,WeatherDisplay:10.37,2013-09-17 16:15:00,
2013-09-17 11:20:00,74.2,67.3,30.18,ENE,57,0.0,0.0,79,0.00,CLR,FEW,0.00,WeatherDisplay:10.37,2013-09-17 16:20:00,
2013-09-17 11:25:00,74.3,67.4,30.18,NE,44,0.0,0.0,79,0.00,CLR,FEW,0.00,WeatherDisplay:10.37,2013-09-17 16:25:00,
2013-09-17 11:30:00,74.5,67.6,30.18,NE,38,0.0,0.0,79,0.00,CLR,FEW,0.00,WeatherDisplay:10.37,2013-09-17 16:30:00,
2013-09-17 11:35:00,74.7,68.1,30.18,East,82,0.0,0.0,80,0.00,CLR,FEW,0.00,WeatherDisplay:10.37,2013-09-17 16:35:00,
2013-09-17 11:40:00,74.9,67.9,30.18,ENE,71,0.0,0.0,79,0.00,CLR,FEW,0.00,WeatherDisplay:10.37,2013-09-17 16:40:00,
2013-09-17 11:45:00,75.1,67.4,30.17,NNE,18,0.0,0.0,77,0.00,CLR,FEW,0.00,WeatherDisplay:10.37,2013-09-17 16:45:00,
2013-09-17 11:50:00,75.3,68.0,30.17,NNW,335,0.0,0.0,78,0.00,CLR,FEW,0.00,WeatherDisplay:10.37,2013-09-17 16:50:00,
2013-09-17 11:55:00,75.5,68.2,30.17,NE,38,0.0,0.0,78,0.00,CLR,FEW,0.00,WeatherDisplay:10.37,2013-09-17 16:55:00,
2013-09-17 12:00:00,75.7,68.7,30.17,NNW,331,0.0,0.0,79,0.00,CLR,FEW,0.00,WeatherDisplay:10.37,2013-09-17 17:00:00,
2013-09-17 12:05:00,76.0,69.4,30.16,NW,304,0.0,0.0,80,0.00,CLR,FEW,0.00,WeatherDisplay:10.37,2013-09-17 17:05:00,
2013-09-17 12:10:00,76.5,68.4,30.16,NNW,347,0.0,0.0,76,0.00,CLR,FEW,0.00,WeatherDisplay:10.37,2013-09-17 17:10:00,
2013-09-17 12:15:00,77.1,68.2,30.16,NNW,328,0.0,0.0,74,0.00,CLR,FEW,0.00,WeatherDisplay:10.37,2013-09-17 17:15:00,
2013-09-17 12:20:00,77.4,67.7,30.16,NE,44,0.0,0.0,72,0.00,CLR,FEW,0.00,WeatherDisplay:10.37,2013-09-17 17:20:00,
2013-09-17 12:25:00,77.3,67.6,30.16,WNW,293,0.0,0.0,72,0.00,CLR,FEW,0.00,WeatherDisplay:10.37,2013-09-17 17:25:00,
2013-09-17 12:30:00,77.3,68.0,30.16,East,81,0.0,0.0,73,0.00,CLR,FEW,0.00,WeatherDisplay:10.37,2013-09-17 17:30:00,
2013-09-17 12:35:00,77.5,67.8,30.16,ENE,76,0.0,0.0,72,0.00,CLR,FEW,0.00,WeatherDisplay:10.37,2013-09-17 17:35:00,
2013-09-17 12:40:00,77.7,68.0,30.16,East,89,0.0,0.0,72,0.00,CLR,FEW,0.00,WeatherDisplay:10.37,2013-09-17 17:40:00,
2013-09-17 12:45:00,77.8,68.0,30.15,North,11,0.0,0.0,72,0.00,CLR,FEW,0.00,WeatherDisplay:10.37,2013-09-17 17:45:00,
2013-09-17 12:50:00,78.1,68.3,30.15,ENE,61,0.0,0.0,72,0.00,CLR,FEW,0.00,WeatherDisplay:10.37,2013-09-17 17:50:00,
2013-09-17 12:55:00,78.3,68.1,30.15,NE,55,0.0,0.0,71,0.00,CLR,FEW,0.00,WeatherDisplay:10.37,2013-09-17 17:55:00,
2013-09-17 13:00:00,78.5,68.7,30.15,ENE,68,0.0,0.0,72,0.00,CLR,FEW,0.00,WeatherDisplay:10.37,2013-09-17 18:00:00,
2013-09-17 13:05:00,78.7,68.5,30.15,North,5,0.0,0.0,71,0.00,FEW,,0.00,WeatherDisplay:10.37,2013-09-17 18:05:00,
2013-09-17 13:10:00,79.0,68.8,30.14,ENE,70,0.0,0.0,71,0.00,FEW,,0.00,WeatherDisplay:10.37,2013-09-17 18:10:00,
2013-09-17 13:15:00,79.3,68.7,30.14,NNE,31,0.0,0.0,70,0.00,FEW,,0.00,WeatherDisplay:10.37,2013-09-17 18:15:00,
2013-09-17 13:20:00,79.6,69.0,30.14,NNW,348,0.0,0.0,70,0.00,FEW,,0.00,WeatherDisplay:10.37,2013-09-17 18:20:00,
2013-09-17 13:25:00,79.9,68.8,30.14,NE,42,0.0,0.0,69,0.00,FEW,,0.00,WeatherDisplay:10.37,2013-09-17 18:25:00,
2013-09-17 13:30:00,80.0,68.5,30.14,East,80,0.0,0.0,68,0.00,FEW,,0.00,WeatherDisplay:10.37,2013-09-17 18:30:00,
2013-09-17 13:35:00,80.3,69.2,30.14,East,94,0.0,0.0,69,0.00,FEW,,0.00,WeatherDisplay:10.37,2013-09-17 18:35:00,
2013-09-17 13:40:00,80.5,67.6,30.13,NE,51,0.0,0.0,65,0.00,FEW,,0.00,WeatherDisplay:10.37,2013-09-17 18:40:00,
2013-09-17 13:45:00,80.4,69.3,30.13,NNE,17,0.0,0.0,69,0.00,FEW,,0.00,WeatherDisplay:10.37,2013-09-17 18:45:00,
2013-09-17 13:50:00,80.6,67.7,30.13,East,86,0.0,0.0,65,0.00,FEW,,0.00,WeatherDisplay:10.37,2013-09-17 18:50:00,
2013-09-17 13:55:00,80.8,68.4,30.12,NE,50,0.0,0.0,66,0.00,FEW,,0.00,WeatherDisplay:10.37,2013-09-17 18:55:00,
2013-09-17 14:00:00,81.0,68.1,30.12,South,172,0.0,0.0,65,0.00,FEW,,0.00,WeatherDisplay:10.37,2013-09-17 19:00:00,
2013-09-17 14:05:00,81.3,67.5,30.12,ENE,69,0.0,0.0,63,0.00,SCT,FEW,0.00,WeatherDisplay:10.37,2013-09-17 19:05:00,
2013-09-17 14:10:00,81.3,68.4,30.12,ENE,73,0.0,0.0,65,0.00,SCT,FEW,0.00,WeatherDisplay:10.37,2013-09-17 19:10:00,
2013-09-17 14:16:00,81.6,68.7,30.12,SE,134,0.0,0.0,65,0.00,SCT,FEW,0.00,WeatherDisplay:10.37,2013-09-17 19:16:00,
2013-09-17 14:21:00,81.8,68.4,30.12,NNE,28,0.0,0.0,64,0.00,SCT,FEW,0.00,WeatherDisplay:10.37,2013-09-17 19:21:00,
2013-09-17 14:26:00,82.1,67.8,30.11,NNE,25,0.0,0.0,62,0.00,SCT,FEW,0.00,WeatherDisplay:10.37,2013-09-17 19:26:00,
2013-09-17 14:31:00,82.2,68.8,30.11,NW,309,0.0,0.0,64,0.00,SCT,FEW,0.00,WeatherDisplay:10.37,2013-09-17 19:31:00,
2013-09-17 14:36:00,82.3,68.9,30.11,East,101,0.0,0.0,64,0.00,SCT,FEW,0.00,WeatherDisplay:10.37,2013-09-17 19:36:00,
2013-09-17 14:41:00,82.5,67.7,30.11,SE,138,0.0,0.0,61,0.00,SCT,FEW,0.00,WeatherDisplay:10.37,2013-09-17 19:41:00,
2013-09-17 14:46:00,82.3,67.5,30.11,NE,36,0.0,0.0,61,0.00,SCT,FEW,0.00,WeatherDisplay:10.37,2013-09-17 19:46:00,
2013-09-17 14:51:00,82.0,68.6,30.10,ESE,107,0.0,0.0,64,0.00,SCT,FEW,0.00,WeatherDisplay:10.37,2013-09-17 19:51:00,
2013-09-17 14:56:00,81.7,68.3,30.10,NE,55,0.0,0.0,64,0.00,SCT,FEW,0.00,WeatherDisplay:10.37,2013-09-17 19:56:00,
2013-09-17 15:01:00,81.6,68.7,30.10,North,355,0.0,0.0,65,0.00,SCT,FEW,0.00,WeatherDisplay:10.37,2013-09-17 20:01:00,
2013-09-17 15:06:00,81.6,68.2,30.10,North,10,0.0,0.0,64,0.00,SCT,FEW,0.00,WeatherDisplay:10.37,2013-09-17 20:06:00,
2013-09-17 15:11:00,81.6,68.2,30.09,North,355,0.0,0.0,64,0.00,SCT,FEW,0.00,WeatherDisplay:10.37,2013-09-17 20:11:00,
2013-09-17 15:16:00,81.6,68.2,30.10,NE,49,0.0,0.0,64,0.00,SCT,FEW,0.00,WeatherDisplay:10.37,2013-09-17 20:16:00,
2013-09-17 15:21:00,81.5,68.1,30.10,NW,324,0.0,0.0,64,0.00,SCT,FEW,0.00,WeatherDisplay:10.37,2013-09-17 20:21:00,
2013-09-17 15:26:00,81.8,69.8,30.09,North,10,0.0,0.0,67,0.00,SCT,FEW,0.00,WeatherDisplay:10.37,2013-09-17 20:26:00,
2013-09-17 15:31:00,82.0,68.2,30.09,NE,35,0.0,0.0,63,0.00,SCT,FEW,0.00,WeatherDisplay:10.37,2013-09-17 20:31:00,
2013-09-17 15:36:00,82.1,69.2,30.09,SE,125,0.0,0.0,65,0.00,FEW,,0.00,WeatherDisplay:10.37,2013-09-17 20:36:00,
2013-09-17 15:41:00,82.4,69.0,30.09,North,5,0.0,0.0,64,0.00,FEW,,0.00,WeatherDisplay:10.37,2013-09-17 20:41:00,
2013-09-17 15:46:00,82.6,69.2,30.09,NNE,30,0.0,0.0,64,0.00,FEW,,0.00,WeatherDisplay:10.37,2013-09-17 20:46:00,
2013-09-17 15:51:00,82.6,68.3,30.09,East,86,0.0,0.0,62,0.00,FEW,,0.00,WeatherDisplay:10.37,2013-09-17 20:51:00,
2013-09-17 15:56:00,82.0,67.7,30.09,NE,36,0.0,0.0,62,0.00,FEW,,0.00,WeatherDisplay:10.37,2013-09-17 20:56:00,
2013-09-17 16:01:00,81.5,69.5,30.08,NE,48,0.0,0.0,67,0.00,FEW,,0.00,WeatherDisplay:10.37,2013-09-17 21:01:00,
2013-09-17 16:06:00,81.4,69.4,30.08,NE,48,0.0,0.0,67,0.00,FEW,,0.00,WeatherDisplay:10.37,2013-09-17 21:06:00,
2013-09-17 16:11:00,81.4,69.4,30.08,NE,42,0.0,0.0,67,0.00,FEW,,0.00,WeatherDisplay:10.37,2013-09-17 21:11:00,
2013-09-17 16:16:00,81.3,68.4,30.08,NE,45,0.0,0.0,65,0.00,FEW,,0.00,WeatherDisplay:10.37,2013-09-17 21:16:00,
2013-09-17 16:21:00,81.3,68.0,30.08,NE,42,0.0,0.0,64,0.00,FEW,,0.00,WeatherDisplay:10.37,2013-09-17 21:21:00,
2013-09-17 16:26:00,81.5,68.6,30.08,NE,40,0.0,0.0,65,0.00,FEW,,0.00,WeatherDisplay:10.37,2013-09-17 21:26:00,
2013-09-17 16:31:00,81.8,69.8,30.08,NE,40,0.0,0.0,67,0.00,FEW,,0.00,WeatherDisplay:10.37,2013-09-17 21:31:00,
2013-09-17 16:36:00,82.3,68.9,30.08,SE,144,0.0,0.0,64,0.00,FEW,,0.00,WeatherDisplay:10.37,2013-09-17 21:36:00,
2013-09-17 16:41:00,82.7,68.4,30.08,SE,142,0.0,0.0,62,0.00,FEW,,0.00,WeatherDisplay:10.37,2013-09-17 21:41:00,
2013-09-17 16:46:00,82.5,67.7,30.08,SSE,161,0.0,0.0,61,0.00,FEW,,0.00,WeatherDisplay:10.37,2013-09-17 21:46:00,
2013-09-17 16:51:00,82.3,68.9,30.08,ENE,61,0.0,0.0,64,0.00,FEW,,0.00,WeatherDisplay:10.37,2013-09-17 21:51:00,
2013-09-17 16:56:00,81.9,69.0,30.08,ENE,61,0.0,0.0,65,0.00,FEW,,0.00,WeatherDisplay:10.37,2013-09-17 21:56:00,
2013-09-17 17:01:00,81.6,68.7,30.08,ENE,61,0.0,0.0,65,0.00,FEW,,0.00,WeatherDisplay:10.37,2013-09-17 22:01:00,
2013-09-17 17:07:00,81.4,68.5,30.08,ENE,61,0.0,0.0,65,0.00,FEW,,0.00,WeatherDisplay:10.37,2013-09-17 22:07:00,
2013-09-17 17:12:00,81.3,69.7,30.08,NE,53,0.0,0.0,68,0.00,FEW,,0.00,WeatherDisplay:10.37,2013-09-17 22:12:00,
2013-09-17 17:17:00,81.0,68.1,30.08,NNE,13,0.0,0.0,65,0.00,FEW,,0.00,WeatherDisplay:10.37,2013-09-17 22:17:00,
2013-09-17 17:22:00,80.7,68.7,30.08,North,11,0.0,0.0,67,0.00,FEW,,0.00,WeatherDisplay:10.37,2013-09-17 22:22:00,
2013-09-17 17:27:00,80.4,68.4,30.08,North,5,0.0,0.0,67,0.00,FEW,,0.00,WeatherDisplay:10.37,2013-09-17 22:27:00,
2013-09-17 17:32:00,80.2,68.2,30.08,North,9,0.0,0.0,67,0.00,FEW,,0.00,WeatherDisplay:10.37,2013-09-17 22:32:00,
2013-09-17 17:37:00,80.0,69.3,30.08,North,9,0.0,0.0,70,0.00,FEW,,0.00,WeatherDisplay:10.37,2013-09-17 22:37:00,
2013-09-17 17:43:00,79.5,69.7,30.08,North,9,0.0,0.0,72,0.00,FEW,,0.00,WeatherDisplay:10.37,2013-09-17 22:43:00,
2013-09-17 17:48:00,78.8,69.8,30.08,North,9,0.0,0.0,74,0.00,FEW,,0.00,WeatherDisplay:10.37,2013-09-17 22:48:00,
2013-09-17 17:53:00,78.2,70.0,30.08,North,9,0.0,0.0,76,0.00,FEW,,0.00,WeatherDisplay:10.37,2013-09-17 22:53:00,
2013-09-17 17:58:00,77.7,69.9,30.08,North,9,0.0,0.0,77,0.00,FEW,,0.00,WeatherDisplay:10.37,2013-09-17 22:58:00,
2013-09-17 18:03:00,77.2,69.8,30.08,North,9,0.0,0.0,78,0.00,CLR,FEW,0.00,WeatherDisplay:10.37,2013-09-17 23:03:00,
2013-09-17 18:08:00,76.7,70.1,30.08,North,9,0.0,0.0,80,0.00,CLR,FEW,0.00,WeatherDisplay:10.37,2013-09-17 23:08:00,
2013-09-17 18:13:00,76.3,70.0,30.08,North,9,0.0,0.0,81,0.00,CLR,FEW,0.00,WeatherDisplay:10.37,2013-09-17 23:13:00,
2013-09-17 18:18:00,76.0,70.1,30.08,North,9,0.0,0.0,82,0.00,CLR,FEW,0.00,WeatherDisplay:10.37,2013-09-17 23:18:00,
2013-09-17 18:24:00,75.7,70.2,30.08,North,9,0.0,0.0,83,0.00,CLR,FEW,0.00,WeatherDisplay:10.37,2013-09-17 23:24:00,
2013-09-17 18:29:00,75.5,70.3,30.08,North,9,0.0,0.0,84,0.00,CLR,FEW,0.00,WeatherDisplay:10.37,2013-09-17 23:29:00,
2013-09-17 18:34:00,75.1,69.9,30.08,WNW,295,0.0,0.0,84,0.00,CLR,FEW,0.00,WeatherDisplay:10.37,2013-09-17 23:34:00,
2013-09-17 18:39:00,74.7,69.9,30.08,WNW,295,0.0,0.0,85,0.00,CLR,FEW,0.00,WeatherDisplay:10.37,2013-09-17 23:39:00,
2013-09-17 18:44:00,74.4,69.9,30.08,WNW,295,0.0,0.0,86,0.00,CLR,FEW,0.00,WeatherDisplay:10.37,2013-09-17 23:44:00,
2013-09-17 18:49:00,74.0,69.9,30.08,WNW,295,0.0,0.0,87,0.00,CLR,FEW,0.00,WeatherDisplay:10.37,2013-09-17 23:49:00,
2013-09-17 18:54:00,73.7,69.6,30.07,WNW,295,0.0,0.0,87,0.00,CLR,FEW,0.00,WeatherDisplay:10.37,2013-09-17 23:54:00,
2013-09-17 18:59:00,73.6,69.8,30.07,WNW,295,0.0,0.0,88,0.00,CLR,FEW,0.00,WeatherDisplay:10.37,2013-09-17 23:59:00,
2013-09-17 19:04:00,73.5,69.7,30.07,WNW,295,0.0,0.0,88,0.00,FEW,,0.00,WeatherDisplay:10.37,2013-09-18 00:04:00,
2013-09-17 19:09:00,73.4,70.0,30.07,WNW,295,0.0,0.0,89,0.00,FEW,,0.00,WeatherDisplay:10.37,2013-09-18 00:09:00,
2013-09-17 19:14:00,73.1,69.7,30.07,WNW,295,0.0,0.0,89,0.00,FEW,,0.00,WeatherDisplay:10.37,2013-09-18 00:14:00,
2013-09-17 19:19:00,72.7,69.6,30.07,WNW,295,0.0,0.0,90,0.00,FEW,,0.00,WeatherDisplay:10.37,2013-09-18 00:19:00,
2013-09-17 19:24:00,72.3,69.5,30.08,WNW,295,0.0,0.0,91,0.00,FEW,,0.00,WeatherDisplay:10.37,2013-09-18 00:24:00,
2013-09-17 19:30:00,71.9,69.1,30.08,WNW,295,0.0,0.0,91,0.00,FEW,,0.00,WeatherDisplay:10.37,2013-09-18 00:30:00,
2013-09-17 19:35:00,71.7,69.3,30.08,WNW,295,0.0,0.0,92,0.00,FEW,,0.00,WeatherDisplay:10.37,2013-09-18 00:35:00,
2013-09-17 19:40:00,71.4,69.0,30.08,WNW,295,0.0,0.0,92,0.00,FEW,,0.00,WeatherDisplay:10.37,2013-09-18 00:40:00,
2013-09-17 19:45:00,71.2,68.8,30.08,WNW,295,0.0,0.0,92,0.00,FEW,,0.00,WeatherDisplay:10.37,2013-09-18 00:45:00,
2013-09-17 19:50:00,71.1,68.7,30.08,WNW,295,0.0,0.0,92,0.00,FEW,,0.00,WeatherDisplay:10.37,2013-09-18 00:50:00,
2013-09-17 19:55:00,70.9,68.8,30.08,WNW,295,0.0,0.0,93,0.00,FEW,,0.00,WeatherDisplay:10.37,2013-09-18 00:55:00,
2013-09-17 20:00:00,70.8,69.0,30.08,WNW,295,0.0,0.0,94,0.00,FEW,,0.00,WeatherDisplay:10.37,2013-09-18 01:00:00,
2013-09-17 20:05:00,70.7,68.9,30.08,WNW,295,0.0,0.0,94,0.00,BKN,FEW,0.00,WeatherDisplay:10.37,2013-09-18 01:05:00,
2013-09-17 20:10:00,70.5,68.7,30.08,WNW,295,0.0,0.0,94,0.00,BKN,FEW,0.00,WeatherDisplay:10.37,2013-09-18 01:10:00,
2013-09-17 20:15:00,70.4,68.6,30.09,WNW,295,0.0,0.0,94,0.00,BKN,FEW,0.00,WeatherDisplay:10.37,2013-09-18 01:15:00,
2013-09-17 20:20:00,70.3,68.8,30.09,WNW,295,0.0,0.0,95,0.00,BKN,FEW,0.00,WeatherDisplay:10.37,2013-09-18 01:20:00,
2013-09-17 20:25:00,70.2,68.7,30.09,WNW,295,0.0,0.0,95,0.00,BKN,FEW,0.00,WeatherDisplay:10.37,2013-09-18 01:25:00,
2013-09-17 20:30:00,70.2,68.7,30.09,WNW,295,0.0,0.0,95,0.00,BKN,FEW,0.00,WeatherDisplay:10.37,2013-09-18 01:30:00,
2013-09-17 20:35:00,70.2,68.7,30.09,WNW,295,0.0,0.0,95,0.00,BKN,FEW,0.00,WeatherDisplay:10.37,2013-09-18 01:35:00,
2013-09-17 20:40:00,70.1,68.6,30.09,WNW,295,0.0,0.0,95,0.00,BKN,FEW,0.00,WeatherDisplay:10.37,2013-09-18 01:40:00,
2013-09-17 20:45:00,70.0,68.5,30.09,WNW,295,0.0,0.0,95,0.00,BKN,FEW,0.00,WeatherDisplay:10.37,2013-09-18 01:45:00,
2013-09-17 20:50:00,69.9,68.4,30.09,WNW,295,0.0,0.0,95,0.00,BKN,FEW,0.00,WeatherDisplay:10.37,2013-09-18 01:50:00,
2013-09-17 20:55:00,69.8,68.3,30.09,WNW,295,0.0,0.0,95,0.00,BKN,FEW,0.00,WeatherDisplay:10.37,2013-09-18 01:55:00,
2013-09-17 21:00:00,69.7,68.2,30.09,WNW,295,0.0,0.0,95,0.00,BKN,FEW,0.00,WeatherDisplay:10.37,2013-09-18 02:00:00,
2013-09-17 21:05:00,69.5,68.0,30.09,WNW,295,0.0,0.0,95,0.00,FEW,,0.00,WeatherDisplay:10.37,2013-09-18 02:05:00,
2013-09-17 21:10:00,69.4,67.9,30.09,WNW,295,0.0,0.0,95,0.00,FEW,,0.00,WeatherDisplay:10.37,2013-09-18 02:10:00,
2013-09-17 21:15:00,69.2,67.7,30.09,WNW,295,0.0,0.0,95,0.00,FEW,,0.00,WeatherDisplay:10.37,2013-09-18 02:15:00,
2013-09-17 21:20:00,69.2,67.7,30.09,WNW,295,0.0,0.0,95,0.00,FEW,,0.00,WeatherDisplay:10.37,2013-09-18 02:20:00,
2013-09-17 21:25:00,69.2,68.0,30.09,WNW,295,0.0,0.0,96,0.00,FEW,,0.00,WeatherDisplay:10.37,2013-09-18 02:25:00,
2013-09-17 21:30:00,69.1,67.9,30.09,WNW,295,0.0,0.0,96,0.00,FEW,,0.00,WeatherDisplay:10.37,2013-09-18 02:30:00,
2013-09-17 21:35:00,69.0,67.8,30.09,WNW,295,0.0,0.0,96,0.00,FEW,,0.00,WeatherDisplay:10.37,2013-09-18 02:35:00,
2013-09-17 21:40:00,68.9,67.7,30.09,WNW,295,0.0,0.0,96,0.00,FEW,,0.00,WeatherDisplay:10.37,2013-09-18 02:40:00,
2013-09-17 21:45:00,68.8,67.6,30.09,WNW,295,0.0,0.0,96,0.00,FEW,,0.00,WeatherDisplay:10.37,2013-09-18 02:45:00,
2013-09-17 21:50:00,68.7,67.2,30.09,WNW,295,0.0,0.0,95,0.00,FEW,,0.00,WeatherDisplay:10.37,2013-09-18 02:50:00,
2013-09-17 21:56:00,68.6,67.4,30.09,WNW,295,0.0,0.0,96,0.00,FEW,,0.00,WeatherDisplay:10.37,2013-09-18 02:56:00,
2013-09-17 22:01:00,68.5,67.3,30.09,WNW,295,0.0,0.0,96,0.00,CLR,FEW,0.00,WeatherDisplay:10.37,2013-09-18 03:01:00,
2013-09-17 22:06:00,68.3,67.1,30.09,WNW,295,0.0,0.0,96,0.00,CLR,FEW,0.00,WeatherDisplay:10.37,2013-09-18 03:06:00,
2013-09-17 22:11:00,68.2,67.0,30.09,WNW,295,0.0,0.0,96,0.00,CLR,FEW,0.00,WeatherDisplay:10.37,2013-09-18 03:11:00,
2013-09-17 22:16:00,68.2,67.0,30.09,WNW,295,0.0,0.0,96,0.00,CLR,FEW,0.00,WeatherDisplay:10.37,2013-09-18 03:16:00,
2013-09-17 22:21:00,68.2,67.0,30.09,WNW,295,0.0,0.0,96,0.00,CLR,FEW,0.00,WeatherDisplay:10.37,2013-09-18 03:21:00,
2013-09-17 22:26:00,68.2,67.0,30.09,WNW,295,0.0,0.0,96,0.00,CLR,FEW,0.00,WeatherDisplay:10.37,2013-09-18 03:26:00,
2013-09-17 22:31:00,68.2,67.0,30.09,WNW,295,0.0,0.0,96,0.00,CLR,FEW,0.00,WeatherDisplay:10.37,2013-09-18 03:31:00,
2013-09-17 22:36:00,68.2,67.0,30.09,WNW,295,0.0,0.0,96,0.00,CLR,FEW,0.00,WeatherDisplay:10.37,2013-09-18 03:36:00,
2013-09-17 22:41:00,68.1,66.9,30.09,WNW,295,0.0,0.0,96,0.00,CLR,FEW,0.00,WeatherDisplay:10.37,2013-09-18 03:41:00,
2013-09-17 22:46:00,68.1,66.9,30.09,WNW,295,0.0,0.0,96,0.00,CLR,FEW,0.00,WeatherDisplay:10.37,2013-09-18 03:46:00,
2013-09-17 22:52:00,68.0,66.8,30.09,WNW,295,0.0,0.0,96,0.00,CLR,FEW,0.00,WeatherDisplay:10.37,2013-09-18 03:52:00,
2013-09-17 22:57:00,67.9,66.7,30.09,WNW,295,0.0,0.0,96,0.00,CLR,FEW,0.00,WeatherDisplay:10.37,2013-09-18 03:57:00,
2013-09-17 23:01:00,67.8,66.6,30.09,WNW,295,0.0,0.0,96,0.00,CLR,FEW,0.00,WeatherDisplay:10.37,2013-09-18 04:01:00,
2013-09-17 23:02:00,67.7,66.5,30.09,WNW,295,0.0,0.0,96,0.00,CLR,FEW,0.00,WeatherDisplay:10.37,2013-09-18 04:02:00,
2013-09-17 23:07:00,67.7,66.5,30.09,WNW,295,0.0,0.0,96,0.00,CLR,FEW,0.00,WeatherDisplay:10.37,2013-09-18 04:07:00,
2013-09-17 23:12:00,67.6,66.4,30.09,WNW,295,0.0,0.0,96,0.00,CLR,FEW,0.00,WeatherDisplay:10.37,2013-09-18 04:12:00,
2013-09-17 23:17:00,67.5,66.3,30.09,WNW,295,0.0,0.0,96,0.00,CLR,FEW,0.00,WeatherDisplay:10.37,2013-09-18 04:17:00,
2013-09-17 23:22:00,67.4,66.2,30.08,WNW,295,0.0,0.0,96,0.00,CLR,FEW,0.00,WeatherDisplay:10.37,2013-09-18 04:22:00,
2013-09-17 23:27:00,67.4,66.2,30.08,WNW,295,0.0,0.0,96,0.00,CLR,FEW,0.00,WeatherDisplay:10.37,2013-09-18 04:27:00,
2013-09-17 23:32:00,67.4,66.2,30.08,WNW,295,0.0,0.0,96,0.00,CLR,FEW,0.00,WeatherDisplay:10.37,2013-09-18 04:32:00,
2013-09-17 23:37:00,67.3,66.1,30.08,WNW,295,0.0,0.0,96,0.00,CLR,FEW,0.00,WeatherDisplay:10.37,2013-09-18 04:37:00,
2013-09-17 23:42:00,67.2,66.0,30.08,WNW,295,0.0,0.0,96,0.00,CLR,FEW,0.00,WeatherDisplay:10.37,2013-09-18 04:42:00,
2013-09-17 23:47:00,67.2,66.3,30.08,WNW,295,0.0,0.0,97,0.00,CLR,FEW,0.00,WeatherDisplay:10.37,2013-09-18 04:47:00,
2013-09-17 23:52:00,67.1,65.9,30.08,WNW,295,0.0,0.0,96,0.00,CLR,FEW,0.00,WeatherDisplay:10.37,2013-09-18 04:52:00,
2013-09-17 23:57:00,67.0,65.8,30.08,WNW,295,0.0,0.0,96,0.00,CLR,FEW,0.00,WeatherDisplay:10.37,2013-09-18 04:57:00,